Regional Weather Roundup
Issued by NWS Lake Charles, LA

Home | Current Version | Previous Version | Text Only | Print | Product List | Glossary On
Versions: 1 2 3 4 5 6 7 8 9 10 11 12 13 14 15 16 17 18 19 20 21 22 23 24 25 26 27 28 29 30 31 32 33 34 35 36 37 38 39 40 41 42 43 44 45 46 47 48 49 50
887
ASUS44 KLCH 190310
RWRLCH
REGIONAL WEATHER ROUNDUP
NATIONAL WEATHER SERVICE LAKE CHARLES LA
1000 PM CDT WED OCT 18 2017

Note: "fair" indicates few or no clouds below 12,000 feet with no
significant weather and/or obstructions to visibility.


ACROSS SOUTHEAST TEXAS

CITY           SKY/WX    TMP DP  RH WIND       PRES   REMARKS
BEAUMONT       CLEAR     62  61  96 CALM      30.14R
BEAUMONT CITY  FAIR      65  61  87 CALM      30.15R
ORANGE         CLEAR     61  61 100 CALM      30.16S
JASPER         CLEAR     60  58  93 CALM      30.17S
$$

ACROSS CENTRAL LOUISIANA

CITY           SKY/WX    TMP DP  RH WIND       PRES   REMARKS
LEESVILLE      CLEAR     61  57  87 CALM      30.16R
FULLERTON      FAIR      57  55  93 CALM      30.14S
ALEXANDRIA INT CLEAR     60  54  80 CALM      30.15R
ESLER FIELD    CLEAR     55  55 100 CALM      30.17R
DERIDDER       FAIR      61  59  92 CALM      30.17S
OAKDALE        CLEAR     55  53  94 CALM      30.17R FOG
OPELOUSAS        N/A     61  59  94 CALM      30.17R
$$

ACROSS SOUTHWEST AND SOUTH CENTRAL LOUISIANA

CITY           SKY/WX    TMP DP  RH WIND       PRES   REMARKS
SULPHUR        CLEAR     64  60  86 CALM      30.16R FOG
LAKE CHARLES   CLEAR     65  62  90 CALM      30.15R
CHENNAULT INT  CLEAR     64  61  88 CALM      30.16R
CAMERON PHI    MOCLDY    66  63  88 CALM      30.14R
DEQUINCY       FAIR      59  56  91 CALM      30.15S
JENNINGS       FAIR      64  58  79 CALM      30.16R
LAFAYETTE      CLEAR     67  63  87 CALM      30.17R
NEW IBERIA     CLEAR     65  59  81 SE6       30.17R
ABBEVILLE      MOCLDY    66  64  94 E3        30.17R
PATTERSON      NOT AVBL
SALT POINT       N/A     69  63  81 E3        30.16R
$$

SELECTED SITES ACROSS THE REGION

CITY           SKY/WX    TMP DP  RH WIND       PRES   REMARKS
HOUSTON BUSH   PTCLDY    68  64  87 SE8       30.13S
HOUSTON HOBBY  MOCLDY    72  65  78 SE3       30.13R
GALVESTON      PTCLDY    75  64  68 E8        30.14R
COLLEGE STAT   CLOUDY    68  53  58 E3        30.12R
CONROE         CLEAR     59  58  96 CALM      30.13S
HUNTSVILLE     CLEAR     62  55  77 E3        30.12F
LUFKIN         CLEAR     62  57  83 E3        30.14R
SHREVEPORT     MOCLDY    61  55  81 CALM      30.15S
MONROE         CLEAR     56  52  86 CALM      30.19R
NATCHEZ MS     CLEAR     61  57  87 E3        30.20R
BATON ROUGE    CLEAR     64  60  87 E5        30.18R
N.O. INTL ARPT CLEAR     66  59  78 E8        30.19R
SLIDELL        CLEAR     61  58  90 CALM      30.20R
$$

MARINE REPORTS

STATION/POSITION TIME  SKY/WX   TEMP    WIND        PRES    VSBY
                                AIR SEA DIR/SP/G
                 (UTC)          (F)     (DEG/KT/KT) (MB)    (MI)
BUOY 30 S HIGH I 0150            75 80   80/ 10/ 14 1020.3
WVE H/P(F/S)=  2/ 6

SEA RIM ST PARK  0300            72     120/  4/  5 1021.3R
PORT ARTHUR      0242            71 77  150/  3/  5 1020.8R
SABINE PASS N    0242            72 77  160/  5/  6 1022.1R
TEXAS POINT      NOT AVBL
CALCASIEU PASS   0248            71 77   20/  2/  3 1019.6R
LK CHARLES BEACH 0248            70 77              1020.5R
MARSH ISLAND     0200            76                   N/A
FRESH WATER LOCK 0248            70 74   60/  4/  4 1021.0R
AMERADA PASS     0248            70 76   90/  7/ 11 1021.5R
$$




USA.gov is the U.S. government's official web portal to all federal, state and local government web resources and services.